Weather History for Asheville, NC

Change the Weather History Date:

Tuesday, December 9, 2008

  Actual Average Record
Temperature  
Mean Temperature 45 °F 41 °F  
Max Temperature 53 °F 51 °F 70 °F (1923)
Min Temperature 36 °F 30 °F 2 °F (1917)
Degree Days  
Heating Degree Days 20 24  
Month to date heating degree days 277 210  
Since 1 July heating degree days 1296 1077  
Cooling Degree Days 0 0  
Month to date cooling degree days 0 0  
Year to date cooling degree days 875 863  
Moisture  
Dew Point 44 °F    
Average Humidity 72    
Maximum Humidity 100    
Minimum Humidity 44    
Precipitation  
Precipitation 0.10 in 0.13 in 1.32 in (1919)
Month to date precipitation 0.10 1.17  
Year to date precipitation 30.99 43.15  
Snow  
Snow 0.00 in 0.00 in 2.00 in (1938)
Month to date snowfall T 0.1  
Since 1 July snowfall T 0.2  
Snow Depth -    
Sea Level Pressure  
Sea Level Pressure 30.16 in    
Wind  
Wind Speed 7 mph (SSE)    
Max Wind Speed 16 mph    
Max Gust Speed 21 mph    
Visibility 6 miles    
Events Rain    
T = Trace of Precipitation, MM = Missing Value Source: NWS Daily Summary

Daily Weather History Graph

Daily Weather History Graph

Search for Another Location

Airport:

Trip Planner

Search our weather history database for the weather conditions in past years. The results will help you decide how hot, cold, wet, or windy it might be!

Date:

Astronomy

Dec. 09, 2008 Rise Set
Actual Time 7:27 AM EST 5:17 PM EST
Civil Twilight 6:59 AM EST 5:45 PM EST
Nautical Twilight 6:28 AM EST 6:17 PM EST
Astronomical Twilight 5:57 AM EST 6:48 PM EST
Moon 2:33 PM EST (12/9) 3:53 AM EST (12/9)
Length of Visible Light 10h 45m
Length of Day
9h 49m
Waxing Gibbous, 87% of the Moon is Illuminated
Dec 9
Waxing Gibbous
Dec 12
Full
Dec 19
Last Quarter
Dec 27
New
Jan 4
First Quarter

Hourly Weather History & Observations

Time (EST) Temp. Windchill Dew Point Humidity Pressure Visibility Wind Dir Wind Speed Gust Speed Precip Events Conditions
12:03 AM 35.6 °F 31.7 °F 17.6 °F 48% 30.31 in 10.0 mi SSE 4.6 mph - N/A   Overcast
12:54 AM 36.0 °F 30.3 °F 19.0 °F 50% 30.32 in 10.0 mi SSE 6.9 mph - N/A   Overcast
1:54 AM 37.0 °F 33.3 °F 19.0 °F 48% 30.30 in 10.0 mi SSE 4.6 mph - N/A   Overcast
2:54 AM 39.0 °F - 19.9 °F 46% 30.30 in 10.0 mi Calm Calm - N/A   Overcast
3:30 AM 39.2 °F 35.9 °F 24.8 °F 56% 30.28 in 10.0 mi South 4.6 mph - N/A   Overcast
3:54 AM 41.0 °F 35.8 °F 30.9 °F 67% 30.28 in 10.0 mi SSE 8.1 mph - N/A   Overcast
4:54 AM 42.1 °F 39.2 °F 34.0 °F 73% 30.27 in 10.0 mi SSE 4.6 mph - N/A   Overcast
5:54 AM 41.0 °F 37.1 °F 34.0 °F 76% 30.27 in 10.0 mi SSE 5.8 mph - N/A   Overcast
6:54 AM 42.1 °F 40.2 °F 36.0 °F 79% 30.27 in 10.0 mi SSE 3.5 mph - 0.00 in   Overcast
7:54 AM 43.0 °F 38.2 °F 37.9 °F 82% 30.26 in 10.0 mi SSE 8.1 mph - 0.00 in   Overcast
8:24 AM 44.6 °F 39.2 °F 39.2 °F 81% 30.24 in 10.0 mi SSE 10.4 mph - N/A   Overcast
8:54 AM 45.0 °F 38.9 °F 41.0 °F 86% 30.24 in 8.0 mi SSE 12.7 mph - 0.00 in Rain Light Rain
9:01 AM 44.6 °F 38.8 °F 41.0 °F 87% 30.23 in 5.0 mi SSE 11.5 mph 19.6 mph 0.00 in   Overcast
9:24 AM 44.6 °F 38.4 °F 42.8 °F 93% 30.24 in 2.0 mi SSE 12.7 mph - 0.01 in Rain Light Rain
9:54 AM 45.0 °F 38.9 °F 44.1 °F 97% 30.24 in 2.0 mi SSE 12.7 mph - 0.01 in   Overcast
9:56 AM 44.6 °F 38.4 °F 44.6 °F 100% 30.23 in 10.0 mi SSE 12.7 mph - N/A   Overcast
10:04 AM 44.6 °F 38.4 °F 44.6 °F 100% 30.23 in 2.0 mi SSE 12.7 mph - N/A   Overcast
10:14 AM 44.6 °F 38.4 °F 44.6 °F 100% 30.23 in 2.0 mi SSE 12.7 mph - N/A Rain Light Rain
10:24 AM 44.6 °F 38.4 °F 44.6 °F 100% 30.23 in 2.0 mi SSE 12.7 mph - 0.01 in Rain Light Rain
10:49 AM 46.4 °F 41.1 °F 44.6 °F 93% 30.22 in 2.0 mi SSE 11.5 mph 19.6 mph 0.02 in   Overcast
10:54 AM 46.9 °F - 46.0 °F 97% 30.23 in 2.0 mi SSE 11.5 mph - 0.02 in   Overcast
11:54 AM 46.9 °F - 46.0 °F 97% 30.20 in 2.0 mi SSE 10.4 mph 18.4 mph 0.00 in Rain Light Rain
12:01 PM 46.4 °F 40.7 °F 46.4 °F 100% 30.19 in 5.0 mi SSE 12.7 mph - 0.00 in Rain Light Rain
12:10 PM 46.4 °F 40.1 °F 46.4 °F 100% 30.18 in 6.0 mi SSE 15.0 mph 20.7 mph 0.01 in Rain Light Rain
12:18 PM 46.4 °F 40.4 °F 46.4 °F 100% 30.18 in 2.0 mi SSE 13.8 mph 20.7 mph 0.01 in   Overcast
12:54 PM 48.0 °F - 46.9 °F 96% 30.16 in 2.0 mi SSE 15.0 mph - 0.01 in Rain Light Rain
1:54 PM 50.0 °F - 48.0 °F 93% 30.12 in 2.0 mi SSE 10.4 mph 20.7 mph 0.00 in Rain Light Rain
2:01 PM 50.0 °F - 48.2 °F 94% 30.11 in 3.0 mi SE 6.9 mph 17.3 mph 0.00 in Rain Light Rain
2:54 PM 50.0 °F - 48.9 °F 96% 30.11 in 3.0 mi SE 6.9 mph - 0.01 in Rain Light Rain
3:01 PM 51.8 °F - 48.2 °F 88% 30.12 in 3.0 mi SE 10.4 mph - 0.00 in   Overcast
3:54 PM 51.1 °F - 48.9 °F 92% 30.12 in 3.0 mi SSE 8.1 mph - 0.00 in   Overcast
4:54 PM 50.0 °F - 48.9 °F 96% 30.12 in 9.0 mi South 8.1 mph - 0.00 in   Overcast
5:54 PM 50.0 °F - 48.9 °F 96% 30.11 in 7.0 mi SSE 5.8 mph - N/A   Mostly Cloudy
6:01 PM 48.2 °F - 48.2 °F 100% 30.11 in 8.0 mi South 5.8 mph - N/A   Overcast
6:54 PM 50.0 °F - 48.9 °F 96% 30.09 in 8.0 mi South 8.1 mph - N/A   Overcast
7:44 PM 53.6 °F - 50.0 °F 88% 30.10 in 10.0 mi SSE 6.9 mph - N/A   Overcast
7:54 PM 53.1 °F - 50.0 °F 89% 30.09 in 9.0 mi SSE 6.9 mph - 0.00 in Rain Light Rain
8:04 PM 51.8 °F - 50.0 °F 94% 30.09 in 4.0 mi SSE 5.8 mph - 0.01 in Rain Light Rain
8:32 PM 51.8 °F - 50.0 °F 94% 30.08 in 5.0 mi SSE 5.8 mph - 0.02 in Rain Light Rain
8:42 PM 51.8 °F - 51.8 °F 100% 30.08 in 7.0 mi SSE 5.8 mph - 0.02 in   Overcast
8:54 PM 51.1 °F - 50.0 °F 96% 30.06 in 5.0 mi SSE 5.8 mph - 0.03 in Rain Light Rain
9:30 PM 51.8 °F - 51.8 °F 100% 30.06 in 4.0 mi Calm Calm - 0.01 in Rain Light Rain
9:54 PM 52.0 °F - 51.1 °F 97% 30.05 in 6.0 mi Calm Calm - 0.01 in Rain Light Rain
10:06 PM 53.6 °F - 51.8 °F 94% 30.07 in 6.0 mi Calm Calm - 0.00 in   Overcast
10:40 PM 53.6 °F - 51.8 °F 94% 30.06 in 4.0 mi Calm Calm - 0.00 in Rain Light Rain
10:48 PM 51.8 °F - 51.8 °F 100% 30.05 in 1.8 mi Calm Calm - 0.00 in Rain Light Rain
10:54 PM 51.1 °F - 51.1 °F 100% 30.04 in 1.5 mi Calm Calm - 0.00 in Rain Light Rain
11:00 PM 51.8 °F - 51.8 °F 100% 30.05 in 0.8 mi Calm Calm - 0.00 in   Overcast
11:16 PM 51.8 °F - 51.8 °F 100% 30.05 in 1.5 mi Calm Calm - 0.00 in   Overcast
11:21 PM 51.8 °F - 51.8 °F 100% 30.06 in 3.0 mi SSW 3.5 mph - 0.00 in   Overcast
11:38 PM 51.8 °F - 51.8 °F 100% 30.05 in 2.5 mi Calm Calm - 0.01 in Rain Light Rain
11:54 PM 53.6 °F - 53.6 °F 100% 30.04 in 4.0 mi South 4.6 mph - N/A Rain Light Rain